DateTimeUTC,F1_A11,F1_S11,BsB_S11,BsG_S11,BsR_S11,BbsB_S11,BbsG_S11,BbsR_S11,BaB_A11,BaG_A11,BaR_A11,Tu_S11,T_S11,Uu_S11,U_S11,P_S11,T1_A11
2021-04-26T09:00:00Z,00000200,21000000,,,,,,,-000.76,-000.44,-000.00,16.5,23.8,00.3,00.2,0685.4,31.0
2021-04-26T09:01:00Z,00000200,21000000,,,,,,,0000.05,-000.06,-000.17,16.5,23.8,00.3,00.2,0685.4,31.0
2021-04-26T09:02:00Z,00000200,21000000,,,,,,,-000.15,-000.31,-000.51,16.6,23.8,00.2,00.2,0685.4,31.0
2021-04-26T09:03:00Z,00000200,61000000,,,,,,,0000.70,0000.52,0000.63,16.6,23.8,,00.0,0685.4,31.0
2021-04-26T09:04:00Z,00000200,41000000,0001.93,0001.50,0000.83,0000.15,0000.30,0000.46,0000.88,0000.97,0000.48,16.7,23.6,00.3,00.2,0686.4,31.0
2021-04-26T09:05:00Z,00000200,01000000,0002.73,0001.43,0000.99,0000.22,0000.40,0000.38,0000.58,0000.56,0001.02,16.8,23.6,00.4,00.3,0686.5,31.0
2021-04-26T09:06:00Z,00000200,01000000,0002.29,0001.51,0000.90,0000.87,0000.41,0000.03,0001.09,0001.06,0000.24,16.8,23.6,00.4,00.3,0686.5,31.0
2021-04-26T09:07:00Z,00000200,01000000,0002.23,0001.46,0000.96,0000.56,0000.37,0000.13,0000.43,0000.46,0000.48,16.7,23.6,00.4,00.3,0686.5,31.0
2021-04-26T09:08:00Z,00000200,01000000,0002.55,0001.53,0000.71,0000.15,0000.31,0000.15,0000.55,0000.33,0000.17,16.7,23.5,00.4,00.3,0686.5,31.0
2021-04-26T09:09:00Z,00000200,01000000,0002.63,0001.32,0000.93,0000.37,0000.26,0000.53,0000.77,0000.58,0000.81,16.7,23.5,00.5,00.3,0686.5,31.0
2021-04-26T09:10:00Z,00000200,01000000,0001.90,0001.35,0001.01,0000.26,0000.30,0000.41,0000.66,0000.95,0000.35,16.7,23.5,00.5,00.3,0686.5,31.0
2021-04-26T09:11:00Z,00000200,01000000,0002.02,0001.46,0000.77,0000.05,0000.16,0000.10,0000.81,-000.09,0000.29,16.7,23.5,00.5,00.3,0686.5,31.0
2021-04-26T09:12:00Z,00000200,01000000,0002.63,0001.64,0000.95,0000.20,0000.32,0000.19,0000.45,0000.57,0000.60,16.6,23.5,00.4,00.3,0686.5,31.0
2021-04-26T09:13:00Z,00000200,01000000,0002.16,0001.27,0000.88,0000.33,0000.24,0000.01,0000.51,0001.12,0000.43,16.6,23.5,00.5,00.3,0686.5,31.0
2021-04-26T09:14:00Z,00000200,01000000,0001.61,0001.16,0001.24,0000.61,0000.54,0000.24,0001.05,0000.59,0000.51,16.7,23.5,00.5,00.3,0686.4,31.0
2021-04-26T09:15:00Z,00000200,01000000,0002.06,0001.36,0000.93,0000.41,0000.24,0000.16,0000.72,0000.66,0000.68,16.7,23.5,00.5,00.4,0686.4,31.0
2021-04-26T09:16:00Z,00000200,01000000,0002.03,0001.48,0001.03,0000.78,0000.24,0000.27,0000.40,0000.85,0000.31,16.8,23.5,00.5,00.4,0686.4,31.0
2021-04-26T09:17:00Z,00000200,01000000,0003.05,0001.52,0000.85,0000.62,0000.18,0000.12,0000.42,0000.21,0000.24,16.8,23.5,00.4,00.3,0686.3,31.0
2021-04-26T09:18:00Z,00000200,01000000,0002.38,0001.41,0001.08,0000.09,0000.40,0000.39,0001.15,0001.05,0000.60,16.8,23.5,00.5,00.3,0686.3,31.0
2021-04-26T09:19:00Z,00000200,01000000,0002.00,0001.54,0001.03,0000.18,0000.24,0000.06,0000.44,0000.35,0000.57,16.8,23.5,00.5,00.3,0686.3,31.0
2021-04-26T09:20:00Z,00000200,01000000,0002.60,0001.06,0001.05,0000.22,0000.40,0000.32,0000.70,0000.44,0000.55,16.8,23.5,00.6,00.4,0686.3,31.0
2021-04-26T09:21:00Z,00000200,01000000,0001.98,0001.53,0001.15,0000.77,0000.47,0000.12,0000.84,0000.75,0000.47,16.8,23.5,00.5,00.4,0686.3,31.0
2021-04-26T09:22:00Z,00000200,01000000,0002.69,0001.53,0000.64,0000.22,-000.03,0000.28,0001.12,0000.88,0000.52,16.8,23.5,00.6,00.4,0686.3,31.0
2021-04-26T09:23:00Z,00000200,01000000,0002.71,0001.35,0001.12,0000.31,0000.21,0000.34,0000.64,0000.61,0000.41,16.8,23.5,00.7,00.5,0686.3,31.0
2021-04-26T09:24:00Z,00000200,01000000,0002.47,0001.53,0000.99,0000.77,0000.25,0000.11,0000.92,0001.25,0000.81,16.8,23.5,00.7,00.5,0686.3,31.0
2021-04-26T09:25:00Z,00000200,01000000,0002.51,0001.41,0000.78,0000.47,0000.21,0000.25,0000.95,0000.57,0000.49,16.7,23.5,00.7,00.5,0686.3,31.0
2021-04-26T09:26:00Z,00000200,01000000,0002.09,0001.82,0001.03,0000.74,0000.36,0000.53,0000.84,0000.58,0000.72,16.7,23.5,00.8,00.5,0686.3,31.0
2021-04-26T09:27:00Z,00000200,01000000,0002.94,0001.41,0001.01,0000.11,0000.51,-000.02,0000.63,0001.02,0000.63,16.7,23.5,00.8,00.5,0686.3,31.0
2021-04-26T09:28:00Z,00000200,01000000,0002.62,0001.33,0000.81,0000.48,0000.29,0000.28,0000.64,0000.45,0000.17,16.7,23.5,00.9,00.6,0686.3,31.0
2021-04-26T09:29:00Z,00000200,01000000,0002.29,0001.67,0000.83,-000.07,0000.29,0000.06,0000.91,0000.28,0000.62,16.8,23.5,01.0,00.6,0686.3,31.0
2021-04-26T09:30:00Z,00000200,01000000,0001.57,0001.38,0001.13,0000.05,0000.27,0000.30,0000.96,0001.38,0000.57,16.8,23.5,00.8,00.5,0686.3,31.0
2021-04-26T09:31:00Z,00000200,01000000,0003.23,0001.52,0000.91,0000.39,0000.29,0000.42,0000.38,0000.18,0000.42,16.8,23.5,00.9,00.6,0686.4,31.0
2021-04-26T09:32:00Z,00000200,01000000,0002.31,0001.18,0000.61,0000.73,0000.12,0000.38,0000.76,0000.50,0000.36,16.8,23.5,00.8,00.6,0686.4,31.0
2021-04-26T09:33:00Z,00000200,01000000,0002.68,0001.57,0000.78,0000.26,0000.19,0000.09,0000.51,0000.58,0000.62,16.8,23.5,00.9,00.6,0686.4,31.0
2021-04-26T09:34:00Z,00000200,01000000,0002.04,0001.77,0001.05,0000.32,0000.21,0000.30,0000.68,0000.46,0000.14,16.8,23.5,00.9,00.6,0686.4,31.0
2021-04-26T09:35:00Z,00000200,01000000,0002.90,0001.63,0000.92,0000.34,0000.24,0000.04,0000.56,0000.86,0000.60,16.8,23.5,00.9,00.6,0686.5,31.0
2021-04-26T09:36:00Z,00000200,01000000,0002.80,0001.35,0000.92,0000.57,0000.51,0000.19,0001.05,0000.58,0000.45,16.8,23.5,00.9,00.6,0686.5,31.0
2021-04-26T09:37:00Z,00000200,01000000,0002.94,0001.44,0000.82,-000.15,0000.29,-000.09,0000.57,0000.75,0000.57,16.7,23.4,00.9,00.6,0686.5,31.0
2021-04-26T09:38:00Z,00000200,01000000,0002.37,0001.68,0000.92,0000.24,0000.54,0000.24,0000.71,0000.69,0000.73,16.7,23.4,00.9,00.6,0686.4,31.0
2021-04-26T09:39:00Z,00000200,01000000,0002.63,0001.73,0000.98,0000.44,0000.60,0000.09,0000.74,0000.61,0000.20,16.7,23.4,00.9,00.6,0686.5,31.0
2021-04-26T09:40:00Z,00000200,01000000,0001.96,0001.71,0000.70,0000.52,0000.41,0000.26,0000.99,0000.77,0000.43,16.7,23.4,01.0,00.6,0686.5,31.0
2021-04-26T09:41:00Z,00000200,01000000,0002.46,0001.76,0000.99,-000.23,0000.26,0000.31,0000.87,0000.56,0000.46,16.7,23.4,01.0,00.6,0686.4,31.0
2021-04-26T09:42:00Z,00000200,01000000,0002.79,0001.84,0000.91,0000.74,0000.12,0000.27,0000.29,0000.80,0000.73,16.7,23.4,01.0,00.6,0686.4,31.0
2021-04-26T09:43:00Z,00000200,01000000,0002.42,0001.53,0000.91,0000.39,0000.51,0000.22,0000.91,0000.59,0000.33,16.6,23.4,00.9,00.6,0686.4,31.0
2021-04-26T09:44:00Z,00000200,01000000,0002.97,0001.62,0001.14,0000.59,0000.42,0000.17,0000.71,0000.72,0000.79,16.7,23.4,00.9,00.6,0686.4,31.0
2021-04-26T09:45:00Z,00000200,01000000,0002.68,0001.40,0001.19,0000.81,0000.30,0000.32,0000.43,0000.94,0000.51,16.7,23.4,01.0,00.6,0686.4,31.0
2021-04-26T09:46:00Z,00000200,01000000,0002.59,0001.35,0000.89,0000.46,0000.34,0000.03,0000.74,0000.33,0000.21,16.8,23.4,00.9,00.6,0686.4,31.0
2021-04-26T09:47:00Z,00000200,01000000,0003.86,0001.30,0001.05,0000.52,0000.32,0000.41,0000.89,0000.94,0000.96,16.8,23.5,01.0,00.6,0686.4,31.0
2021-04-26T09:48:00Z,00000200,01000000,0002.30,0001.43,0000.99,0000.93,0000.35,0000.14,0001.02,0000.63,0000.17,16.9,23.5,00.9,00.6,0686.3,31.0
2021-04-26T09:49:00Z,00000200,01000000,0002.61,0001.50,0001.01,0000.23,0000.32,0000.11,0000.65,0000.59,0000.79,16.9,23.5,01.2,00.8,0686.3,31.0
2021-04-26T09:50:00Z,00000200,01000000,0002.15,0001.69,0000.81,0000.96,0000.53,-000.08,0001.01,0000.62,0000.42,16.8,23.5,01.1,00.7,0686.4,31.0
2021-04-26T09:51:00Z,00000200,01000000,0002.15,0001.69,0001.10,0000.37,0000.54,0000.25,0000.62,0000.61,0000.41,16.8,23.5,01.1,00.7,0686.4,31.0
2021-04-26T09:52:00Z,00000200,01000000,0002.41,0001.53,0001.32,0000.57,0000.28,0000.23,0000.50,0000.74,0000.48,16.8,23.4,01.1,00.7,0686.4,31.0
2021-04-26T09:53:00Z,00000200,01000000,0002.35,0001.54,0000.97,0000.89,0000.44,0000.24,0001.08,0000.80,0000.36,16.8,23.4,01.0,00.7,0686.4,31.0
2021-04-26T09:54:00Z,00000200,01000000,0002.91,0001.78,0000.71,0000.28,0000.29,0000.38,0000.75,0000.64,0000.65,16.8,23.4,01.1,00.8,0686.4,31.0
2021-04-26T09:55:00Z,00000200,01000000,0002.41,0001.62,0001.07,-000.10,0000.14,0000.20,0000.44,0000.52,0000.31,16.8,23.4,01.1,00.7,0686.4,31.0
2021-04-26T09:56:00Z,00000200,01000000,0001.77,0001.35,0000.73,0000.78,0000.38,0000.19,0001.06,0000.56,0000.81,16.8,23.4,01.1,00.7,0686.4,31.0
2021-04-26T09:57:00Z,00000200,41000000,,,,,,,-000.22,-000.26,-000.13,16.8,23.4,00.9,00.6,0686.5,31.0
2021-04-26T09:58:00Z,00000200,61000000,,,,,,,0000.02,0000.74,0000.28,16.5,23.6,01.0,00.6,0685.3,31.0
2021-04-26T09:59:00Z,00000200,21000000,,,,,,,0000.48,0000.17,0000.41,16.5,23.7,00.9,00.6,0685.3,31.0
